Regional Weather Roundup
Issued by NWS

Home | Current Version | Previous Version | Text Only | Print | Product List | Glossary On
Versions: 1 2 3 4 5 6 7 8 9 10 11 12 13 14 15 16 17 18 19 20 21 22 23 24 25 26 27 28 29 30 31 32 33 34 35 36 37 38 39 40 41 42 43 44 45 46 47 48 49 50
000
ASUS45 KPSR 201310
RWRAZ

ARIZONA REGIONAL HOURLY WEATHER ROUNDUP
NATIONAL WEATHER SERVICE PHOENIX AZ
600 AM MST SAT DEC 20 2014

NOTE: FAIR INDICATES FEW OR NO CLOUDS BELOW 12,000 FEET WITH NO
SIGNIFICANT WEATHER AND/OR OBSTRUCTIONS TO VISIBILITY.

AZZ001>003-036-201400-
NORTHWEST ARIZONA

CITY           SKY/WX    TMP DP  RH WIND       PRES   REMARKS
BULLHEAD CITY  CLEAR     43  39  87 CALM      30.15S
KINGMAN        CLEAR     29  27  92 CALM      30.15R
$$

AZZ004>008-015-016-018-201400-
NORTH CENTRAL ARIZONA

CITY           SKY/WX    TMP DP  RH WIND       PRES   REMARKS
GRAND CANYON   CLEAR     20  17  88 CALM      30.17R
PRESCOTT       PTCLDY    29  24  82 S7        30.14R WCI  22
FLAGSTAFF      CLEAR     20  17  88 CALM      30.15S
PAYSON         CLEAR     32  27  80 CALM      30.16R
PAGE           CLEAR     33  27  78 CALM      30.19R
$$

AZZ009>014-017-201400-
NORTHEAST ARIZONA

CITY           SKY/WX    TMP DP  RH WIND       PRES   REMARKS
WINSLOW        FOG       29  28  96 SE8       30.19S VSB 1/2 WCI  21
SAINT JOHNS    MOCLDY    24  22  91 NE5       30.16F WCI  18
WINDOW ROCK    MOCLDY    23  18  81 CALM      30.16F
SHOW LOW       PTCLDY    23  18  80 CALM      30.16F
$$

AZZ023-201400-
GREATER PHOENIX AREA

CITY           SKY/WX    TMP DP  RH WIND       PRES   REMARKS
PHOENIX        MOCLDY    47  40  76 E5        30.09F
BUCKEYE          N/A     41  41 100 NW5       30.13R
LUKE AFB       PTCLDY    43  43  99 N6        30.11R
DEER VALLEY    PTCLDY    45  38  76 CALM      30.10R
SCOTTSDALE     MOCLDY    44  39  82 CALM      30.10F
MESA-FALCON    PTCLDY    45  37  76 CALM      30.09
MESA-GATEWAY   MOCLDY    41  37  87 SE6       30.12F
CHANDLER       MOCLDY    41  41 100 E9        30.10
$$

AZZ027-028-201400-
SOUTHWEST MARICOPA COUNTY AND PINAL COUNTY

CITY           SKY/WX    TMP DP  RH WIND       PRES   REMARKS
CASA GRANDE    PTCLDY    39  36  87 CALM      30.11S
GILA BEND      FAIR      43  37  78 SE3       30.12R
$$

AZZ503-504-507>509-201400-
SOUTHEAST ARIZONA

CITY           SKY/WX    TMP DP  RH WIND       PRES   REMARKS
TUCSON         CLEAR     39  35  86 SE6       30.14R WCI  35
DAVIS-MONTHAN  PTCLDY    38  34  84 SE7       30.11F WCI  33
RYAN FIELD       N/A     37  37 100 SE3       30.13
NOGALES        CLEAR     31  28  89 E5        30.12R WCI  26
SIERRA VISTA   CLEAR     33  26  75 W8        30.14R WCI  26
DOUGLAS        PTCLDY    21  18  88 W7        30.15R WCI  12
SAFFORD        PTCLDY    33  32  96 NE5       30.15R WCI  29
$$

AZZ020-021-025-026-031-201400-
SOUTHWEST ARIZONA

CITY           SKY/WX    TMP DP  RH WIND       PRES   REMARKS
YUMA           CLEAR    N/A  40 N/A NE5       30.10F
$$

CAZ031-033-041-043-047-048-061-201400-
SOUTHERN CALIFORNIA

CITY           SKY/WX    TMP DP  RH WIND       PRES   REMARKS
DOWNTOWN L.A.  MOCLDY    51  47  86 CALM      30.14F
L.A. AIRPORT   MOCLDY    51  48  89 CALM      30.14F
SAN DIEGO      PTCLDY    53  47  79 CALM      30.16R
BURBANK        MOCLDY    47  43  86 CALM      30.13S
ONTARIO        PTCLDY    47  42  83 CALM      30.13F
RIVERSIDE      CLEAR     46  43  89 E3        30.13F FOG
PALM SPRINGS   PTCLDY    48  41  76 CALM      30.13S
EL CENTRO NAS  CLEAR     44  40  85 SW5       30.11F
IMPERIAL       CLEAR     44  41  89 CALM      30.11S
BLYTHE         CLEAR     43  42  97 NE6       30.12S
NEEDLES        CLEAR     45  39  79 W7        30.13F
$$

NVZ020-UTZ003-201400-
SOUTHERN NEVADA-UTAH

CITY           SKY/WX    TMP DP  RH WIND       PRES   REMARKS
LAS VEGAS      PTCLDY    42  35  76 SW7       30.13R
SALT LAKE CITY MOCLDY    38  34  85 CALM      30.10F
$$

NMZ009-TXZ055-201400-
NEW MEXICO-WEST TEXAS

CITY           SKY/WX    TMP DP  RH WIND       PRES   REMARKS
ALBUQUERQUE    PTCLDY    30  23  75 CALM      30.16F
EL PASO        PTCLDY    31  24  75 NE6       30.15R WCI  25
$$


........................KEY........................
SKY/WX - SKY CONDITION/WEATHER
TMP    - TEMPERATURE IN FAHRENHEIT
DP     - DEW POINT IN FAHRENHEIT
RH     - RELATIVE HUMIDITY IN PERCENT
WIND   - DIRECTION AND SPEED IN MILES PER HOUR (MPH)
VRB    - VARIABLE WIND DIRECTION
PRES   - MEAN SEA LEVEL PRESSURE IN INCHES OF MERCURY
         F - FALLING PRESSURE   R - RISING PRESSURE
         S - STEADY PRESSURE
VSB    - VISIBILITY IN MILES
HX     - HEAT INDEX IN FAHRENHEIT
WCI    - WIND CHILL INDEX IN FAHRENHEIT
TC     - TEMPERATURE IN CELSIUS WHICH IS ALSO KNOWN AS
         TEMPERATURE IN CENTIGRADE
AFB    - AIR FORCE BASE
         LUKE AFB IS LUKE AIR FORCE BASE
         DAVIS-MONTHAN IS DAVIS-MONTHAN AIR FORCE BASE
NAS    - NAVAL AIR STATION
         EL CENTRO NAS IS EL CENTRO NAVAL AIR STATION
N/A    - NOT AVAILABLE



USA.gov is the U.S. government's official web portal to all federal, state and local government web resources and services.